Location: Bellerive
(46.9237°N, 7.0223°E)
Time: 17:25:24
(UTC+00:00)

BREEZE M DEB (TANK) - Pass Details

Date: 09 April 2020
Orbit: 303 x 11878 km, 49.5° (Epoch: 01 June)

Event Time Altitude Azimuth Distance (km) Brightness Sun altitude
Rises 19:16:03 0° 209° (SSW) 2,175 5.4 -11.1°
Reaches altitude 10° 19:17:35 10° 197° (SSW) 1,541 4.5 -11.3°
Maximum altitude 19:20:22 32° 130° (SE) 1,134 3.4 -11.7°
Drops below altitude 10° 19:26:43 10° 70° (ENE) 3,593 6.0 -12.7°
Sets 19:32:28 0° 63° (ENE) 6,045 7.3 -13.6°
